Wetterdaten: Samstag, 24.10.2015
Datum Zeit Temp. A. Feuchte A. Luftdruck Regen Wind Richtung Richtung Sonnenschein ET UV Solar Taupunkt Windchill Windben Empfang
24.10.2015 00:00 4,3 C 98 % 1023,6 hPa 0,0 l/m 0,1 km/h (0 Bft) SO 126 0 min 0,000 mm 0,0 UV-I 0 W/m 4,0 C 4,3 C 1,6 km/h (1 Bft) 100,00 %
24.10.2015 00:05 4,3 C 98 % 1023,5 hPa 0,0 l/m 0,9 km/h (0 Bft) NO 52 0 min 0,000 mm 0,0 UV-I 0 W/m 4,0 C 4,3 C 3,2 km/h (1 Bft) 100,00 %
24.10.2015 00:10 4,4 C 98 % 1023,5 hPa 0,0 l/m 1,5 km/h (1 Bft) NO 43 0 min 0,000 mm 0,0 UV-I 0 W/m 4,1 C 4,4 C 3,2 km/h (1 Bft) 98,31 %
24.10.2015 00:15 4,3 C 98 % 1023,4 hPa 0,0 l/m 1,1 km/h (1 Bft) O-NO 66 0 min 0,000 mm 0,0 UV-I 0 W/m 4,0 C 4,3 C 3,2 km/h (1 Bft) 100,00 %
24.10.2015 00:20 4,3 C 98 % 1023,3 hPa 0,0 l/m 0,8 km/h (0 Bft) NO 51 0 min 0,000 mm 0,0 UV-I 0 W/m 4,0 C 4,3 C 3,2 km/h (1 Bft) 99,17 %
24.10.2015 00:25 4,3 C 98 % 1023,3 hPa 0,0 l/m 1,0 km/h (0 Bft) O 88 0 min 0,000 mm 0,0 UV-I 0 W/m 4,0 C 4,3 C 3,2 km/h (1 Bft) 100,00 %
24.10.2015 00:30 4,6 C 98 % 1023,3 hPa 0,0 l/m 1,2 km/h (1 Bft) O 87 0 min 0,000 mm 0,0 UV-I 0 W/m 4,3 C 4,6 C 3,2 km/h (1 Bft) 99,15 %
24.10.2015 00:35 4,4 C 98 % 1023,3 hPa 0,0 l/m 1,4 km/h (1 Bft) O 96 0 min 0,000 mm 0,0 UV-I 0 W/m 4,1 C 4,4 C 4,8 km/h (1 Bft) 97,32 %
24.10.2015 00:40 4,7 C 98 % 1023,3 hPa 0,0 l/m 2,2 km/h (1 Bft) O 79 0 min 0,000 mm 0,0 UV-I 0 W/m 4,4 C 4,7 C 4,8 km/h (1 Bft) 100,00 %
24.10.2015 00:45 4,9 C 98 % 1023,3 hPa 0,0 l/m 0,8 km/h (0 Bft) SO 140 0 min 0,000 mm 0,0 UV-I 0 W/m 4,6 C 4,9 C 3,2 km/h (1 Bft) 100,00 %
24.10.2015 00:50 4,8 C 98 % 1023,3 hPa 0,0 l/m 0,1 km/h (0 Bft) SO 141 0 min 0,000 mm 0,0 UV-I 0 W/m 4,5 C 4,8 C 1,6 km/h (1 Bft) 100,00 %
24.10.2015 00:55 4,3 C 98 % 1023,2 hPa 0,0 l/m 0,4 km/h (0 Bft) S-SO 159 0 min 0,000 mm 0,0 UV-I 0 W/m 4,0 C 4,3 C 1,6 km/h (1 Bft) 99,08 %
24.10.2015 01:00 4,1 C 98 % 1023,2 hPa 0,0 l/m 0,2 km/h (0 Bft) S-SO 159 0 min 0,000 mm 0,0 UV-I 0 W/m 3,8 C 4,1 C 1,6 km/h (1 Bft) 100,00 %
24.10.2015 01:05 4,1 C 98 % 1023,2 hPa 0,0 l/m 0,8 km/h (0 Bft) O-SO 115 0 min 0,000 mm 0,0 UV-I 0 W/m 3,8 C 4,1 C 1,6 km/h (1 Bft) 100,00 %
24.10.2015 01:10 4,1 C 98 % 1023,3 hPa 0,0 l/m 1,1 km/h (1 Bft) O 95 0 min 0,000 mm 0,0 UV-I 0 W/m 3,8 C 4,1 C 3,2 km/h (1 Bft) 99,22 %
24.10.2015 01:15 3,9 C 98 % 1023,4 hPa 0,0 l/m 0,6 km/h (0 Bft) O 80 0 min 0,000 mm 0,0 UV-I 0 W/m 3,6 C 3,9 C 3,2 km/h (1 Bft) 99,11 %
24.10.2015 01:20 4,1 C 98 % 1023,3 hPa 0,0 l/m 0,3 km/h (0 Bft) O 80 0 min 0,000 mm 0,0 UV-I 0 W/m 3,8 C 4,1 C 1,6 km/h (1 Bft) 99,12 %
24.10.2015 01:25 4,2 C 98 % 1023,2 hPa 0,0 l/m 0,8 km/h (0 Bft) O 80 0 min 0,000 mm 0,0 UV-I 0 W/m 3,9 C 4,2 C 1,6 km/h (1 Bft) 100,00 %
24.10.2015 01:30 4,2 C 98 % 1023,1 hPa 0,0 l/m 1,3 km/h (1 Bft) O-NO 71 0 min 0,000 mm 0,0 UV-I 0 W/m 3,9 C 4,2 C 3,2 km/h (1 Bft) 99,15 %
24.10.2015 01:35 4,2 C 98 % 1023,1 hPa 0,0 l/m 0,2 km/h (0 Bft) O-NO 71 0 min 0,000 mm 0,0 UV-I 0 W/m 3,9 C 4,2 C 1,6 km/h (1 Bft) 100,00 %
24.10.2015 01:40 4,2 C 98 % 1023,1 hPa 0,0 l/m 0,1 km/h (0 Bft) O-NO 71 0 min 0,000 mm 0,0 UV-I 0 W/m 3,9 C 4,2 C 1,6 km/h (1 Bft) 99,19 %
24.10.2015 01:45 4,2 C 98 % 1023,0 hPa 0,0 l/m 0,1 km/h (0 Bft) O-NO 71 0 min 0,000 mm 0,0 UV-I 0 W/m 3,9 C 4,2 C 1,6 km/h (1 Bft) 99,10 %
24.10.2015 01:50 4,2 C 98 % 1023,0 hPa 0,0 l/m 0,4 km/h (0 Bft) O-NO 71 0 min 0,000 mm 0,0 UV-I 0 W/m 3,9 C 4,2 C 1,6 km/h (1 Bft) 100,00 %
24.10.2015 01:55 4,3 C 98 % 1023,1 hPa 0,0 l/m 0,0 km/h (0 Bft) O-NO 71 0 min 0,000 mm 0,0 UV-I 0 W/m 4,0 C 4,3 C 0,0 km/h (0 Bft) 100,00 %
24.10.2015 02:00 4,3 C 98 % 1023,0 hPa 0,0 l/m 0,7 km/h (0 Bft) O-NO 61 0 min 0,000 mm 0,0 UV-I 0 W/m 4,0 C 4,3 C 1,6 km/h (1 Bft) 100,00 %
24.10.2015 02:05 4,4 C 98 % 1023,0 hPa 0,0 l/m 1,0 km/h (0 Bft) NO 40 0 min 0,000 mm 0,0 UV-I 0 W/m 4,1 C 4,4 C 3,2 km/h (1 Bft) 97,58 %
24.10.2015 02:10 4,4 C 98 % 1023,0 hPa 0,0 l/m 1,3 km/h (1 Bft) NO 45 0 min 0,000 mm 0,0 UV-I 0 W/m 4,1 C 4,4 C 3,2 km/h (1 Bft) 100,00 %
24.10.2015 02:15 4,5 C 98 % 1023,0 hPa 0,0 l/m 0,7 km/h (0 Bft) NO 40 0 min 0,000 mm 0,0 UV-I 0 W/m 4,2 C 4,5 C 3,2 km/h (1 Bft) 100,00 %
24.10.2015 02:20 4,6 C 98 % 1023,0 hPa 0,0 l/m 0,2 km/h (0 Bft) NO 40 0 min 0,000 mm 0,0 UV-I 0 W/m 4,3 C 4,6 C 1,6 km/h (1 Bft) 100,00 %
24.10.2015 02:25 4,7 C 98 % 1023,2 hPa 0,0 l/m 0,3 km/h (0 Bft) NO 40 0 min 0,000 mm 0,0 UV-I 0 W/m 4,4 C 4,7 C 1,6 km/h (1 Bft) 100,00 %
24.10.2015 02:30 4,8 C 98 % 1023,2 hPa 0,0 l/m 0,3 km/h (0 Bft) NO 40 0 min 0,000 mm 0,0 UV-I 0 W/m 4,5 C 4,8 C 3,2 km/h (1 Bft) 100,00 %
24.10.2015 02:35 4,9 C 98 % 1023,2 hPa 0,0 l/m 0,2 km/h (0 Bft) NO 40 0 min 0,000 mm 0,0 UV-I 0 W/m 4,6 C 4,9 C 1,6 km/h (1 Bft) 100,00 %
24.10.2015 02:40 5,3 C 98 % 1023,2 hPa 0,0 l/m 1,7 km/h (1 Bft) O-NO 59 0 min 0,000 mm 0,0 UV-I 0 W/m 5,0 C 5,3 C 11,3 km/h (2 Bft) 98,15 %
24.10.2015 02:45 5,6 C 98 % 1023,1 hPa 0,0 l/m 3,9 km/h (1 Bft) O-NO 67 0 min 0,000 mm 0,0 UV-I 0 W/m 5,3 C 5,6 C 8,0 km/h (2 Bft) 100,00 %
24.10.2015 02:50 5,7 C 98 % 1023,1 hPa 0,0 l/m 5,7 km/h (1 Bft) O-NO 78 0 min 0,000 mm 0,0 UV-I 0 W/m 5,4 C 5,7 C 11,3 km/h (2 Bft) 99,13 %
24.10.2015 02:55 5,7 C 98 % 1023,0 hPa 0,0 l/m 8,1 km/h (2 Bft) O-NO 60 0 min 0,000 mm 0,0 UV-I 0 W/m 5,4 C 4,3 C 16,1 km/h (3 Bft) 99,12 %
24.10.2015 03:00 5,7 C 98 % 1022,9 hPa 0,0 l/m 6,3 km/h (2 Bft) O 96 0 min 0,000 mm 0,0 UV-I 0 W/m 5,4 C 5,7 C 12,9 km/h (3 Bft) 99,17 %
24.10.2015 03:05 5,7 C 98 % 1022,8 hPa 0,0 l/m 5,5 km/h (1 Bft) O 84 0 min 0,000 mm 0,0 UV-I 0 W/m 5,4 C 5,7 C 11,3 km/h (2 Bft) 100,00 %
24.10.2015 03:10 5,7 C 98 % 1022,8 hPa 0,0 l/m 5,4 km/h (1 Bft) O 87 0 min 0,000 mm 0,0 UV-I 0 W/m 5,4 C 5,7 C 11,3 km/h (2 Bft) 99,26 %
24.10.2015 03:15 5,6 C 98 % 1022,8 hPa 0,0 l/m 4,4 km/h (1 Bft) O 86 0 min 0,000 mm 0,0 UV-I 0 W/m 5,3 C 5,6 C 11,3 km/h (2 Bft) 99,11 %
24.10.2015 03:20 5,6 C 98 % 1022,8 hPa 0,0 l/m 5,5 km/h (1 Bft) NO 40 0 min 0,000 mm 0,0 UV-I 0 W/m 5,3 C 5,6 C 11,3 km/h (2 Bft) 98,25 %
24.10.2015 03:25 5,6 C 98 % 1022,7 hPa 0,0 l/m 3,3 km/h (1 Bft) NO 50 0 min 0,000 mm 0,0 UV-I 0 W/m 5,3 C 5,6 C 6,4 km/h (2 Bft) 100,00 %
24.10.2015 03:30 5,7 C 98 % 1022,7 hPa 0,0 l/m 1,6 km/h (1 Bft) SO 143 0 min 0,000 mm 0,0 UV-I 0 W/m 5,4 C 5,7 C 3,2 km/h (1 Bft) 100,00 %
24.10.2015 03:35 5,7 C 98 % 1022,6 hPa 0,0 l/m 1,3 km/h (1 Bft) O-SO 109 0 min 0,000 mm 0,0 UV-I 0 W/m 5,4 C 5,7 C 6,4 km/h (2 Bft) 100,00 %
24.10.2015 03:40 5,7 C 98 % 1022,6 hPa 0,0 l/m 2,6 km/h (1 Bft) O 83 0 min 0,000 mm 0,0 UV-I 0 W/m 5,4 C 5,7 C 6,4 km/h (2 Bft) 98,21 %
24.10.2015 03:45 5,7 C 98 % 1022,5 hPa 0,0 l/m 3,2 km/h (1 Bft) O-NO 77 0 min 0,000 mm 0,0 UV-I 0 W/m 5,4 C 5,7 C 6,4 km/h (2 Bft) 100,00 %
24.10.2015 03:50 5,7 C 98 % 1022,5 hPa 0,0 l/m 3,0 km/h (1 Bft) O-NO 78 0 min 0,000 mm 0,0 UV-I 0 W/m 5,4 C 5,7 C 8,0 km/h (2 Bft) 99,17 %
24.10.2015 03:55 5,7 C 98 % 1022,5 hPa 0,0 l/m 4,8 km/h (1 Bft) O-NO 65 0 min 0,000 mm 0,0 UV-I 0 W/m 5,4 C 5,7 C 9,7 km/h (2 Bft) 100,00 %
24.10.2015 04:00 5,7 C 98 % 1022,6 hPa 0,0 l/m 5,2 km/h (1 Bft) O-NO 64 0 min 0,000 mm 0,0 UV-I 0 W/m 5,4 C 5,7 C 11,3 km/h (2 Bft) 100,00 %
24.10.2015 04:05 5,7 C 98 % 1022,5 hPa 0,0 l/m 4,4 km/h (1 Bft) O-NO 65 0 min 0,000 mm 0,0 UV-I 0 W/m 5,4 C 5,7 C 11,3 km/h (2 Bft) 100,00 %
24.10.2015 04:10 5,7 C 98 % 1022,5 hPa 0,0 l/m 2,7 km/h (1 Bft) O 89 0 min 0,000 mm 0,0 UV-I 0 W/m 5,4 C 5,7 C 9,7 km/h (2 Bft) 100,00 %
24.10.2015 04:15 5,8 C 98 % 1022,5 hPa 0,0 l/m 1,9 km/h (1 Bft) O 89 0 min 0,000 mm 0,0 UV-I 0 W/m 5,5 C 5,8 C 6,4 km/h (2 Bft) 99,15 %
24.10.2015 04:20 5,8 C 98 % 1022,4 hPa 0,0 l/m 2,4 km/h (1 Bft) O-NO 70 0 min 0,000 mm 0,0 UV-I 0 W/m 5,5 C 5,8 C 8,0 km/h (2 Bft) 100,00 %
24.10.2015 04:25 5,8 C 98 % 1022,4 hPa 0,0 l/m 4,6 km/h (1 Bft) O-SO 103 0 min 0,000 mm 0,0 UV-I 0 W/m 5,5 C 5,8 C 11,3 km/h (2 Bft) 99,17 %
24.10.2015 04:30 5,7 C 98 % 1022,3 hPa 0,0 l/m 6,2 km/h (2 Bft) O-NO 74 0 min 0,000 mm 0,0 UV-I 0 W/m 5,4 C 5,7 C 11,3 km/h (2 Bft) 100,00 %
24.10.2015 04:35 5,7 C 98 % 1022,3 hPa 0,0 l/m 5,4 km/h (1 Bft) O 89 0 min 0,000 mm 0,0 UV-I 0 W/m 5,4 C 5,7 C 11,3 km/h (2 Bft) 100,00 %
24.10.2015 04:40 5,6 C 98 % 1022,3 hPa 0,0 l/m 6,3 km/h (2 Bft) O-NO 71 0 min 0,000 mm 0,0 UV-I 0 W/m 5,3 C 5,6 C 11,3 km/h (2 Bft) 100,00 %
24.10.2015 04:45 5,4 C 98 % 1022,3 hPa 0,0 l/m 5,9 km/h (2 Bft) O-NO 70 0 min 0,000 mm 0,0 UV-I 0 W/m 5,1 C 5,4 C 11,3 km/h (2 Bft) 99,19 %
24.10.2015 04:50 5,3 C 98 % 1022,2 hPa 0,0 l/m 4,6 km/h (1 Bft) O 86 0 min 0,000 mm 0,0 UV-I 0 W/m 5,0 C 5,3 C 9,7 km/h (2 Bft) 99,19 %
24.10.2015 04:55 5,3 C 98 % 1022,1 hPa 0,0 l/m 3,9 km/h (1 Bft) O 80 0 min 0,000 mm 0,0 UV-I 0 W/m 5,0 C 5,3 C 9,7 km/h (2 Bft) 98,20 %
24.10.2015 05:00 5,2 C 98 % 1022,1 hPa 0,0 l/m 3,1 km/h (1 Bft) O-NO 67 0 min 0,000 mm 0,0 UV-I 0 W/m 4,9 C 5,2 C 4,8 km/h (1 Bft) 100,00 %
24.10.2015 05:05 5,2 C 98 % 1022,1 hPa 0,0 l/m 1,9 km/h (1 Bft) O-NO 71 0 min 0,000 mm 0,0 UV-I 0 W/m 4,9 C 5,2 C 4,8 km/h (1 Bft) 100,00 %
24.10.2015 05:10 5,1 C 98 % 1022,1 hPa 0,0 l/m 4,7 km/h (1 Bft) O 80 0 min 0,000 mm 0,0 UV-I 0 W/m 4,8 C 5,1 C 8,0 km/h (2 Bft) 99,21 %
24.10.2015 05:15 5,0 C 98 % 1022,1 hPa 0,0 l/m 4,2 km/h (1 Bft) O 81 0 min 0,000 mm 0,0 UV-I 0 W/m 4,7 C 5,0 C 6,4 km/h (2 Bft) 100,00 %
24.10.2015 05:20 5,0 C 98 % 1022,0 hPa 0,0 l/m 3,5 km/h (1 Bft) O-SO 123 0 min 0,000 mm 0,0 UV-I 0 W/m 4,7 C 5,0 C 6,4 km/h (2 Bft) 97,32 %
24.10.2015 05:25 5,0 C 98 % 1022,0 hPa 0,0 l/m 4,1 km/h (1 Bft) O 92 0 min 0,000 mm 0,0 UV-I 0 W/m 4,7 C 5,0 C 9,7 km/h (2 Bft) 98,25 %
24.10.2015 05:30 4,9 C 98 % 1022,0 hPa 0,0 l/m 3,7 km/h (1 Bft) O 92 0 min 0,000 mm 0,0 UV-I 0 W/m 4,6 C 4,9 C 6,4 km/h (2 Bft) 100,00 %
24.10.2015 05:35 4,9 C 98 % 1022,0 hPa 0,0 l/m 2,4 km/h (1 Bft) O-NO 72 0 min 0,000 mm 0,0 UV-I 0 W/m 4,6 C 4,9 C 6,4 km/h (2 Bft) 99,10 %
24.10.2015 05:40 4,9 C 98 % 1022,0 hPa 0,0 l/m 0,9 km/h (0 Bft) O 101 0 min 0,000 mm 0,0 UV-I 0 W/m 4,6 C 4,9 C 3,2 km/h (1 Bft) 99,17 %
24.10.2015 05:45 5,0 C 98 % 1021,9 hPa 0,0 l/m 1,6 km/h (1 Bft) O-NO 67 0 min 0,000 mm 0,0 UV-I 0 W/m 4,7 C 5,0 C 4,8 km/h (1 Bft) 100,00 %
24.10.2015 05:50 5,0 C 98 % 1021,9 hPa 0,0 l/m 0,3 km/h (0 Bft) O-NO 61 0 min 0,000 mm 0,0 UV-I 0 W/m 4,7 C 5,0 C 1,6 km/h (1 Bft) 100,00 %
24.10.2015 05:55 5,0 C 98 % 1021,8 hPa 0,0 l/m 1,4 km/h (1 Bft) SO 145 0 min 0,000 mm 0,0 UV-I 0 W/m 4,7 C 5,0 C 3,2 km/h (1 Bft) 99,19 %
24.10.2015 06:00 4,9 C 98 % 1021,8 hPa 0,0 l/m 1,2 km/h (1 Bft) O 94 0 min 0,000 mm 0,0 UV-I 0 W/m 4,6 C 4,9 C 3,2 km/h (1 Bft) 100,00 %
24.10.2015 06:05 4,9 C 99 % 1021,8 hPa 0,0 l/m 1,6 km/h (1 Bft) O 84 0 min 0,000 mm 0,0 UV-I 0 W/m 4,8 C 4,9 C 4,8 km/h (1 Bft) 100,00 %
24.10.2015 06:10 4,9 C 99 % 1021,8 hPa 0,0 l/m 1,4 km/h (1 Bft) NO 44 0 min 0,000 mm 0,0 UV-I 0 W/m 4,8 C 4,9 C 4,8 km/h (1 Bft) 99,11 %
24.10.2015 06:15 4,8 C 98 % 1021,7 hPa 0,0 l/m 2,2 km/h (1 Bft) SO 127 0 min 0,000 mm 0,0 UV-I 0 W/m 4,5 C 4,8 C 4,8 km/h (1 Bft) 100,00 %
24.10.2015 06:20 4,8 C 98 % 1021,6 hPa 0,0 l/m 3,2 km/h (1 Bft) NO 52 0 min 0,000 mm 0,0 UV-I 0 W/m 4,5 C 4,8 C 6,4 km/h (2 Bft) 99,28 %
24.10.2015 06:25 4,8 C 98 % 1021,7 hPa 0,0 l/m 3,0 km/h (1 Bft) NO 50 0 min 0,000 mm 0,0 UV-I 0 W/m 4,5 C 4,8 C 6,4 km/h (2 Bft) 99,13 %
24.10.2015 06:30 4,7 C 98 % 1021,7 hPa 0,0 l/m 3,1 km/h (1 Bft) O 97 0 min 0,000 mm 0,0 UV-I 0 W/m 4,4 C 4,7 C 8,0 km/h (2 Bft) 100,00 %
24.10.2015 06:35 4,8 C 98 % 1021,6 hPa 0,0 l/m 1,6 km/h (1 Bft) O 96 0 min 0,000 mm 0,0 UV-I 0 W/m 4,5 C 4,8 C 3,2 km/h (1 Bft) 100,00 %
24.10.2015 06:40 4,7 C 98 % 1021,6 hPa 0,0 l/m 2,3 km/h (1 Bft) O 90 0 min 0,000 mm 0,0 UV-I 0 W/m 4,4 C 4,7 C 6,4 km/h (2 Bft) 100,00 %
24.10.2015 06:45 4,7 C 98 % 1021,6 hPa 0,0 l/m 1,7 km/h (1 Bft) O-NO 73 0 min 0,000 mm 0,0 UV-I 0 W/m 4,4 C 4,7 C 4,8 km/h (1 Bft) 98,25 %
24.10.2015 06:50 4,6 C 99 % 1021,6 hPa 0,0 l/m 2,6 km/h (1 Bft) NO 40 0 min 0,000 mm 0,0 UV-I 0 W/m 4,5 C 4,6 C 6,4 km/h (2 Bft) 98,35 %
24.10.2015 06:55 4,6 C 98 % 1021,6 hPa 0,0 l/m 1,5 km/h (1 Bft) O-NO 67 0 min 0,000 mm 0,0 UV-I 0 W/m 4,3 C 4,6 C 4,8 km/h (1 Bft) 100,00 %
24.10.2015 07:00 4,6 C 99 % 1021,6 hPa 0,0 l/m 3,3 km/h (1 Bft) O 80 0 min 0,000 mm 0,0 UV-I 0 W/m 4,5 C 4,6 C 8,0 km/h (2 Bft) 99,21 %
24.10.2015 07:05 4,6 C 99 % 1021,5 hPa 0,0 l/m 5,4 km/h (1 Bft) O-NO 67 0 min 0,000 mm 0,0 UV-I 0 W/m 4,5 C 4,6 C 11,3 km/h (2 Bft) 100,00 %
24.10.2015 07:10 4,6 C 98 % 1021,4 hPa 0,0 l/m 5,4 km/h (1 Bft) O 79 0 min 0,000 mm 0,0 UV-I 0 W/m 4,3 C 4,6 C 11,3 km/h (2 Bft) 98,37 %
24.10.2015 07:15 4,6 C 98 % 1021,4 hPa 0,0 l/m 2,4 km/h (1 Bft) O 96 0 min 0,000 mm 0,0 UV-I 0 W/m 4,3 C 4,6 C 8,0 km/h (2 Bft) 100,00 %
24.10.2015 07:20 4,6 C 99 % 1021,4 hPa 0,0 l/m 3,1 km/h (1 Bft) SO 126 0 min 0,000 mm 0,0 UV-I 0 W/m 4,5 C 4,6 C 9,7 km/h (2 Bft) 98,31 %
24.10.2015 07:25 4,6 C 98 % 1021,3 hPa 0,0 l/m 1,8 km/h (1 Bft) O 96 0 min 0,000 mm 0,0 UV-I 0 W/m 4,3 C 4,6 C 4,8 km/h (1 Bft) 100,00 %
24.10.2015 07:30 4,6 C 98 % 1021,2 hPa 0,0 l/m 3,0 km/h (1 Bft) O-SO 104 0 min 0,000 mm 0,0 UV-I 0 W/m 4,3 C 4,6 C 8,0 km/h (2 Bft) 100,00 %
24.10.2015 07:35 4,6 C 98 % 1021,2 hPa 0,0 l/m 4,4 km/h (1 Bft) O 98 0 min 0,000 mm 0,0 UV-I 0 W/m 4,3 C 4,6 C 9,7 km/h (2 Bft) 100,00 %
24.10.2015 07:40 4,6 C 99 % 1021,2 hPa 0,0 l/m 2,1 km/h (1 Bft) O 84 0 min 0,000 mm 0,0 UV-I 0 W/m 4,5 C 4,6 C 6,4 km/h (2 Bft) 99,08 %
24.10.2015 07:45 4,7 C 99 % 1021,3 hPa 0,0 l/m 2,3 km/h (1 Bft) O 98 0 min 0,000 mm 0,0 UV-I 5 W/m 4,6 C 4,7 C 4,8 km/h (1 Bft) 100,00 %
24.10.2015 07:50 4,7 C 99 % 1021,3 hPa 0,0 l/m 2,0 km/h (1 Bft) O 88 0 min 0,000 mm 0,0 UV-I 6 W/m 4,6 C 4,7 C 4,8 km/h (1 Bft) 99,21 %
24.10.2015 07:55 4,8 C 98 % 1021,3 hPa 0,0 l/m 1,4 km/h (1 Bft) O-NO 76 0 min 0,000 mm 0,0 UV-I 6 W/m 4,5 C 4,8 C 3,2 km/h (1 Bft) 100,00 %
24.10.2015 08:00 4,8 C 98 % 1021,3 hPa 0,0 l/m 0,1 km/h (0 Bft) O-NO 76 0 min 0,000 mm 0,0 UV-I 10 W/m 4,5 C 4,8 C 1,6 km/h (1 Bft) 99,17 %
24.10.2015 08:05 4,8 C 98 % 1021,4 hPa 0,0 l/m 0,4 km/h (0 Bft) O 89 0 min 0,000 mm 0,0 UV-I 13 W/m 4,5 C 4,8 C 3,2 km/h (1 Bft) 99,10 %
24.10.2015 08:10 4,9 C 99 % 1021,4 hPa 0,0 l/m 2,7 km/h (1 Bft) O-NO 76 0 min 0,000 mm 0,0 UV-I 13 W/m 4,8 C 4,9 C 4,8 km/h (1 Bft) 100,00 %
24.10.2015 08:15 4,9 C 99 % 1021,5 hPa 0,0 l/m 1,4 km/h (1 Bft) S-SO 165 0 min 0,000 mm 0,0 UV-I 17 W/m 4,8 C 4,9 C 3,2 km/h (1 Bft) 100,00 %
24.10.2015 08:20 5,0 C 99 % 1021,4 hPa 0,0 l/m 1,6 km/h (1 Bft) SO 138 0 min 0,000 mm 0,0 UV-I 18 W/m 4,9 C 5,0 C 4,8 km/h (1 Bft) 99,19 %
24.10.2015 08:25 5,1 C 99 % 1021,5 hPa 0,0 l/m 1,3 km/h (1 Bft) O-NO 76 0 min 0,000 mm 0,0 UV-I 24 W/m 5,0 C 5,1 C 6,4 km/h (2 Bft) 100,00 %
24.10.2015 08:30 5,0 C 99 % 1021,4 hPa 0,0 l/m 3,6 km/h (1 Bft) O 88 0 min 0,000 mm 0,0 UV-I 26 W/m 4,9 C 5,0 C 11,3 km/h (2 Bft) 99,15 %
24.10.2015 08:35 5,1 C 99 % 1021,4 hPa 0,0 l/m 2,6 km/h (1 Bft) O-SO 120 0 min 0,000 mm 0,0 UV-I 29 W/m 5,0 C 5,1 C 9,7 km/h (2 Bft) 100,00 %
24.10.2015 08:40 5,1 C 99 % 1021,5 hPa 0,0 l/m 0,9 km/h (0 Bft) O 80 0 min 0,000 mm 0,0 UV-I 33 W/m 5,0 C 5,1 C 3,2 km/h (1 Bft) 99,17 %
24.10.2015 08:45 5,2 C 98 % 1021,4 hPa 0,0 l/m 1,0 km/h (0 Bft) O-SO 105 0 min 0,000 mm 0,0 UV-I 36 W/m 4,9 C 5,2 C 3,2 km/h (1 Bft) 99,17 %
24.10.2015 08:50 5,2 C 98 % 1021,5 hPa 0,0 l/m 3,5 km/h (1 Bft) O 98 0 min 0,000 mm 0,0 UV-I 42 W/m 4,9 C 5,2 C 11,3 km/h (2 Bft) 100,00 %
24.10.2015 08:55 5,2 C 98 % 1021,5 hPa 0,0 l/m 2,8 km/h (1 Bft) O-NO 78 0 min 0,000 mm 0,0 UV-I 44 W/m 4,9 C 5,2 C 6,4 km/h (2 Bft) 98,21 %
24.10.2015 09:00 5,3 C 99 % 1021,5 hPa 0,0 l/m 4,2 km/h (1 Bft) O-NO 74 0 min 0,000 mm 0,0 UV-I 50 W/m 5,2 C 5,3 C 8,0 km/h (2 Bft) 100,00 %
24.10.2015 09:05 5,4 C 99 % 1021,5 hPa 0,0 l/m 4,8 km/h (1 Bft) O 80 0 min 0,000 mm 0,0 UV-I 52 W/m 5,3 C 5,4 C 12,9 km/h (3 Bft) 98,39 %
24.10.2015 09:10 5,4 C 99 % 1021,5 hPa 0,0 l/m 5,0 km/h (1 Bft) O-NO 77 0 min 0,000 mm 0,0 UV-I 57 W/m 5,3 C 5,4 C 12,9 km/h (3 Bft) 100,00 %
24.10.2015 09:15 5,4 C 98 % 1021,4 hPa 0,0 l/m 8,2 km/h (2 Bft) O 88 0 min 0,000 mm 0,0 UV-I 57 W/m 5,1 C 3,9 C 14,5 km/h (3 Bft) 99,21 %
24.10.2015 09:20 5,5 C 98 % 1021,4 hPa 0,0 l/m 8,7 km/h (2 Bft) O 90 0 min 0,000 mm 0,0 UV-I 56 W/m 5,2 C 3,6 C 17,7 km/h (3 Bft) 99,13 %
24.10.2015 09:25 5,6 C 99 % 1021,5 hPa 0,0 l/m 5,8 km/h (2 Bft) O 98 0 min 0,000 mm 0,0 UV-I 62 W/m 5,5 C 5,6 C 11,3 km/h (2 Bft) 99,12 %
24.10.2015 09:30 5,6 C 99 % 1021,5 hPa 0,0 l/m 5,4 km/h (1 Bft) NO 55 0 min 0,000 mm 0,0 UV-I 66 W/m 5,5 C 5,6 C 12,9 km/h (3 Bft) 100,00 %
24.10.2015 09:35 5,5 C 98 % 1021,5 hPa 0,0 l/m 8,3 km/h (2 Bft) O 98 0 min 0,000 mm 0,0 UV-I 72 W/m 5,2 C 3,9 C 14,5 km/h (3 Bft) 98,43 %
24.10.2015 09:40 5,5 C 99 % 1021,5 hPa 0,0 l/m 8,2 km/h (2 Bft) O-NO 73 0 min 0,000 mm 0,0 UV-I 75 W/m 5,4 C 4,0 C 16,1 km/h (3 Bft) 99,15 %
24.10.2015 09:45 5,5 C 99 % 1021,5 hPa 0,0 l/m 9,2 km/h (2 Bft) O 92 0 min 0,000 mm 0,0 UV-I 80 W/m 5,4 C 3,2 C 14,5 km/h (3 Bft) 100,00 %
24.10.2015 09:50 5,6 C 99 % 1021,6 hPa 0,0 l/m 8,0 km/h (2 Bft) O 80 0 min 0,000 mm 0,0 UV-I 84 W/m 5,5 C 4,2 C 16,1 km/h (3 Bft) 100,00 %
24.10.2015 09:55 5,6 C 99 % 1021,6 hPa 0,0 l/m 6,6 km/h (2 Bft) O 94 0 min 0,000 mm 0,0 UV-I 78 W/m 5,5 C 5,4 C 12,9 km/h (3 Bft) 99,19 %
24.10.2015 10:00 5,7 C 99 % 1021,7 hPa 0,0 l/m 5,5 km/h (1 Bft) SO 132 0 min 0,025 mm 0,0 UV-I 77 W/m 5,6 C 5,7 C 12,9 km/h (3 Bft) 99,11 %
24.10.2015 10:05 5,8 C 98 % 1021,6 hPa 0,0 l/m 3,6 km/h (1 Bft) O-SO 108 0 min 0,000 mm 0,0 UV-I 80 W/m 5,5 C 5,8 C 11,3 km/h (2 Bft) 100,00 %
24.10.2015 10:10 5,8 C 98 % 1021,6 hPa 0,0 l/m 4,9 km/h (1 Bft) O 86 0 min 0,000 mm 0,0 UV-I 82 W/m 5,5 C 5,8 C 11,3 km/h (2 Bft) 100,00 %
24.10.2015 10:15 5,8 C 98 % 1021,6 hPa 0,0 l/m 5,0 km/h (1 Bft) O 84 0 min 0,000 mm 0,0 UV-I 84 W/m 5,5 C 5,8 C 11,3 km/h (2 Bft) 99,11 %
24.10.2015 10:20 5,9 C 99 % 1021,7 hPa 0,0 l/m 3,1 km/h (1 Bft) S-SW 212 0 min 0,000 mm 0,0 UV-I 87 W/m 5,8 C 5,9 C 9,7 km/h (2 Bft) 99,21 %
24.10.2015 10:25 5,9 C 99 % 1021,8 hPa 0,0 l/m 2,5 km/h (1 Bft) S-SW 192 0 min 0,000 mm 0,0 UV-I 94 W/m 5,8 C 5,9 C 6,4 km/h (2 Bft) 100,00 %
24.10.2015 10:30 5,9 C 99 % 1021,8 hPa 0,0 l/m 3,3 km/h (1 Bft) S-SW 202 0 min 0,000 mm 0,0 UV-I 95 W/m 5,8 C 5,9 C 6,4 km/h (2 Bft) 99,13 %
24.10.2015 10:35 5,9 C 99 % 1021,9 hPa 0,0 l/m 1,8 km/h (1 Bft) S 190 0 min 0,000 mm 0,0 UV-I 84 W/m 5,8 C 5,9 C 6,4 km/h (2 Bft) 100,00 %
24.10.2015 10:40 5,8 C 98 % 1021,8 hPa 0,0 l/m 3,2 km/h (1 Bft) O-SO 113 0 min 0,000 mm 0,4 UV-I 110 W/m 5,5 C 5,8 C 6,4 km/h (2 Bft) 99,17 %
24.10.2015 10:45 5,9 C 98 % 1021,7 hPa 0,0 l/m 2,6 km/h (1 Bft) SO 140 0 min 0,000 mm 0,7 UV-I 145 W/m 5,6 C 5,9 C 6,4 km/h (2 Bft) 98,37 %
24.10.2015 10:50 6,0 C 98 % 1021,7 hPa 0,0 l/m 1,6 km/h (1 Bft) O 93 0 min 0,000 mm 0,7 UV-I 152 W/m 5,7 C 6,0 C 3,2 km/h (1 Bft) 100,00 %
24.10.2015 11:00 6,3 C 98 % 1021,8 hPa 0,0 l/m 2,3 km/h (1 Bft) S 170 0 min 0,051 mm 0,7 UV-I 149 W/m 6,0 C 6,3 C 6,4 km/h (2 Bft) 100,00 %
24.10.2015 11:05 6,3 C 97 % 1021,9 hPa 0,0 l/m 2,8 km/h (1 Bft) S-SW 206 0 min 0,000 mm 0,7 UV-I 145 W/m 5,9 C 6,3 C 6,4 km/h (2 Bft) 99,17 %
24.10.2015 11:10 6,4 C 97 % 1022,0 hPa 0,0 l/m 3,4 km/h (1 Bft) S 173 0 min 0,000 mm 0,7 UV-I 138 W/m 6,0 C 6,4 C 6,4 km/h (2 Bft) 99,11 %
24.10.2015 11:15 6,6 C 97 % 1021,8 hPa 0,0 l/m 2,1 km/h (1 Bft) O 94 0 min 0,000 mm 0,9 UV-I 186 W/m 6,2 C 6,6 C 4,8 km/h (1 Bft) 99,12 %
24.10.2015 11:20 6,9 C 96 % 1021,9 hPa 0,0 l/m 2,3 km/h (1 Bft) O 101 0 min 0,000 mm 1,2 UV-I 252 W/m 6,3 C 6,9 C 6,4 km/h (2 Bft) 99,17 %
24.10.2015 11:25 7,0 C 95 % 1021,8 hPa 0,0 l/m 2,7 km/h (1 Bft) S-SO 150 0 min 0,000 mm 1,3 UV-I 222 W/m 6,3 C 7,0 C 6,4 km/h (2 Bft) 100,00 %
24.10.2015 11:30 7,1 C 94 % 1021,7 hPa 0,0 l/m 3,2 km/h (1 Bft) S 178 0 min 0,000 mm 1,4 UV-I 236 W/m 6,2 C 7,1 C 8,0 km/h (2 Bft) 100,00 %
24.10.2015 11:35 7,1 C 95 % 1021,7 hPa 0,0 l/m 3,4 km/h (1 Bft) SW 227 0 min 0,000 mm 1,5 UV-I 252 W/m 6,4 C 7,1 C 6,4 km/h (2 Bft) 100,00 %
24.10.2015 11:40 6,9 C 95 % 1021,8 hPa 0,0 l/m 4,0 km/h (1 Bft) S 188 5 min 0,000 mm 1,3 UV-I 300 W/m 6,2 C 6,9 C 8,0 km/h (2 Bft) 100,00 %
24.10.2015 11:45 7,1 C 95 % 1021,9 hPa 0,0 l/m 4,3 km/h (1 Bft) SW 225 5 min 0,000 mm 1,2 UV-I 286 W/m 6,4 C 7,1 C 8,0 km/h (2 Bft) 99,11 %
24.10.2015 11:50 7,2 C 94 % 1022,0 hPa 0,0 l/m 6,3 km/h (2 Bft) W-SW 252 0 min 0,000 mm 1,2 UV-I 252 W/m 6,3 C 7,2 C 11,3 km/h (2 Bft) 99,00 %
24.10.2015 11:55 6,8 C 93 % 1022,0 hPa 0,0 l/m 6,6 km/h (2 Bft) S-SW 209 0 min 0,000 mm 1,2 UV-I 251 W/m 5,7 C 6,7 C 11,3 km/h (2 Bft) 98,50 %
24.10.2015 12:00 6,9 C 95 % 1022,0 hPa 0,0 l/m 5,0 km/h (1 Bft) W-SW 255 0 min 0,102 mm 1,3 UV-I 246 W/m 6,2 C 6,9 C 9,7 km/h (2 Bft) 100,00 %
24.10.2015 12:05 7,2 C 94 % 1021,9 hPa 0,0 l/m 3,4 km/h (1 Bft) S-SW 207 5 min 0,000 mm 1,5 UV-I 310 W/m 6,3 C 7,2 C 9,7 km/h (2 Bft) 99,17 %
24.10.2015 12:10 7,1 C 93 % 1021,9 hPa 0,0 l/m 5,3 km/h (1 Bft) SW 217 5 min 0,000 mm 1,8 UV-I 369 W/m 6,0 C 7,1 C 9,7 km/h (2 Bft) 99,12 %
24.10.2015 12:15 7,2 C 93 % 1021,9 hPa 0,0 l/m 4,9 km/h (1 Bft) W 271 5 min 0,000 mm 2,1 UV-I 481 W/m 6,1 C 7,2 C 9,7 km/h (2 Bft) 100,00 %
24.10.2015 12:20 7,2 C 93 % 1021,9 hPa 0,0 l/m 5,1 km/h (1 Bft) SW 231 5 min 0,000 mm 2,1 UV-I 524 W/m 6,1 C 7,2 C 6,4 km/h (2 Bft) 100,00 %
24.10.2015 12:30 7,6 C 92 % 1021,7 hPa 0,0 l/m 4,0 km/h (1 Bft) S 175 0 min 0,000 mm 1,7 UV-I 232 W/m 6,4 C 7,6 C 8,0 km/h (2 Bft) 99,71 %
24.10.2015 12:35 7,7 C 92 % 1021,7 hPa 0,0 l/m 3,3 km/h (1 Bft) S-SW 213 5 min 0,000 mm 2,1 UV-I 376 W/m 6,5 C 7,7 C 6,4 km/h (2 Bft) 99,15 %
24.10.2015 12:40 7,8 C 91 % 1021,6 hPa 0,0 l/m 6,0 km/h (2 Bft) S-SO 168 5 min 0,000 mm 2,1 UV-I 569 W/m 6,4 C 7,8 C 9,7 km/h (2 Bft) 100,00 %
24.10.2015 12:45 8,0 C 93 % 1021,6 hPa 0,0 l/m 3,7 km/h (1 Bft) O-SO 105 5 min 0,000 mm 1,9 UV-I 289 W/m 6,9 C 8,0 C 8,0 km/h (2 Bft) 99,11 %
24.10.2015 12:50 8,2 C 91 % 1021,5 hPa 0,0 l/m 4,3 km/h (1 Bft) S 180 5 min 0,000 mm 2,2 UV-I 537 W/m 6,8 C 8,2 C 11,3 km/h (2 Bft) 99,22 %
24.10.2015 12:55 8,3 C 90 % 1021,5 hPa 0,0 l/m 2,8 km/h (1 Bft) S 178 5 min 0,000 mm 2,1 UV-I 518 W/m 6,8 C 8,3 C 6,4 km/h (2 Bft) 100,00 %
24.10.2015 13:10 8,1 C 91 % 1021,6 hPa 0,0 l/m 4,7 km/h (1 Bft) SW 235 15 min 0,178 mm 1,5 UV-I 280 W/m 6,7 C 8,1 C 8,0 km/h (2 Bft) 99,70 %
24.10.2015 13:20 8,2 C 92 % 1021,2 hPa 0,0 l/m 7,4 km/h (2 Bft) S 180 10 min 0,000 mm 2,0 UV-I 563 W/m 7,0 C 7,4 C 9,7 km/h (2 Bft) 98,83 %
24.10.2015 13:25 8,7 C 89 % 1021,0 hPa 0,0 l/m 5,0 km/h (1 Bft) S 171 5 min 0,000 mm 2,1 UV-I 529 W/m 7,0 C 8,7 C 11,3 km/h (2 Bft) 100,00 %
24.10.2015 13:30 8,7 C 88 % 1021,0 hPa 0,0 l/m 3,8 km/h (1 Bft) O-SO 114 5 min 0,000 mm 2,1 UV-I 529 W/m 6,8 C 8,7 C 9,7 km/h (2 Bft) 100,00 %
24.10.2015 13:35 8,9 C 90 % 1020,9 hPa 0,0 l/m 2,6 km/h (1 Bft) SO 138 5 min 0,000 mm 2,0 UV-I 485 W/m 7,4 C 8,9 C 8,0 km/h (2 Bft) 98,40 %
24.10.2015 13:40 9,0 C 88 % 1020,8 hPa 0,0 l/m 3,1 km/h (1 Bft) O-SO 123 5 min 0,000 mm 1,8 UV-I 477 W/m 7,1 C 9,0 C 8,0 km/h (2 Bft) 100,00 %
24.10.2015 13:45 9,2 C 88 % 1020,8 hPa 0,0 l/m 4,0 km/h (1 Bft) SO 137 5 min 0,000 mm 1,9 UV-I 466 W/m 7,3 C 9,2 C 8,0 km/h (2 Bft) 99,12 %
24.10.2015 13:50 9,2 C 88 % 1020,8 hPa 0,0 l/m 4,2 km/h (1 Bft) S 189 5 min 0,000 mm 1,8 UV-I 409 W/m 7,3 C 9,2 C 6,4 km/h (2 Bft) 100,00 %
24.10.2015 13:55 9,7 C 89 % 1020,7 hPa 0,0 l/m 3,4 km/h (1 Bft) S-SO 147 5 min 0,000 mm 1,9 UV-I 477 W/m 8,0 C 9,7 C 11,3 km/h (2 Bft) 98,17 %
24.10.2015 14:00 9,6 C 86 % 1020,8 hPa 0,0 l/m 2,0 km/h (1 Bft) S-SO 166 5 min 0,000 mm 1,8 UV-I 444 W/m 7,4 C 9,6 C 6,4 km/h (2 Bft) 100,00 %
24.10.2015 14:05 9,8 C 88 % 1020,6 hPa 0,0 l/m 2,0 km/h (1 Bft) SO 128 5 min 0,203 mm 1,7 UV-I 412 W/m 7,9 C 9,8 C 6,4 km/h (2 Bft) 99,19 %
24.10.2015 14:10 10,1 C 86 % 1020,8 hPa 0,0 l/m 3,4 km/h (1 Bft) S-SO 158 5 min 0,000 mm 1,7 UV-I 422 W/m 7,9 C 10,1 C 6,4 km/h (2 Bft) 100,00 %
24.10.2015 14:15 10,2 C 88 % 1020,7 hPa 0,0 l/m 2,3 km/h (1 Bft) S-SW 213 5 min 0,000 mm 1,7 UV-I 501 W/m 8,3 C 10,2 C 6,4 km/h (2 Bft) 99,19 %
24.10.2015 14:20 10,2 C 85 % 1020,6 hPa 0,0 l/m 2,9 km/h (1 Bft) SW 223 5 min 0,000 mm 1,7 UV-I 475 W/m 7,8 C 10,2 C 9,7 km/h (2 Bft) 100,00 %
24.10.2015 14:25 10,4 C 87 % 1020,6 hPa 0,0 l/m 0,8 km/h (0 Bft) O-NO 67 5 min 0,000 mm 1,5 UV-I 415 W/m 8,3 C 10,4 C 3,2 km/h (1 Bft) 99,15 %
24.10.2015 14:30 10,7 C 83 % 1020,5 hPa 0,0 l/m 3,1 km/h (1 Bft) S 187 5 min 0,000 mm 1,5 UV-I 428 W/m 7,9 C 10,7 C 8,0 km/h (2 Bft) 100,00 %
24.10.2015 14:35 10,4 C 83 % 1020,5 hPa 0,0 l/m 2,5 km/h (1 Bft) S-SO 163 5 min 0,000 mm 1,5 UV-I 411 W/m 7,6 C 10,4 C 4,8 km/h (1 Bft) 99,15 %
24.10.2015 14:40 10,4 C 84 % 1020,5 hPa 0,0 l/m 1,9 km/h (1 Bft) S-SW 205 5 min 0,000 mm 1,5 UV-I 420 W/m 7,8 C 10,4 C 6,4 km/h (2 Bft) 100,00 %
24.10.2015 14:45 10,5 C 85 % 1020,5 hPa 0,0 l/m 2,4 km/h (1 Bft) W 275 5 min 0,000 mm 1,4 UV-I 433 W/m 8,1 C 10,5 C 4,8 km/h (1 Bft) 99,19 %
24.10.2015 14:50 10,7 C 85 % 1020,3 hPa 0,0 l/m 1,4 km/h (1 Bft) N-NO 32 5 min 0,000 mm 1,4 UV-I 440 W/m 8,3 C 10,7 C 4,8 km/h (1 Bft) 100,00 %
24.10.2015 14:55 10,8 C 84 % 1020,3 hPa 0,0 l/m 1,0 km/h (0 Bft) NO 50 5 min 0,000 mm 1,4 UV-I 410 W/m 8,2 C 10,8 C 4,8 km/h (1 Bft) 99,17 %
24.10.2015 15:00 10,9 C 82 % 1020,2 hPa 0,0 l/m 2,0 km/h (1 Bft) SO 129 5 min 0,203 mm 1,2 UV-I 329 W/m 7,9 C 10,9 C 4,8 km/h (1 Bft) 100,00 %
24.10.2015 15:05 11,0 C 80 % 1020,1 hPa 0,0 l/m 3,9 km/h (1 Bft) SO 130 5 min 0,000 mm 1,2 UV-I 379 W/m 7,7 C 11,0 C 8,0 km/h (2 Bft) 98,17 %
24.10.2015 15:10 11,2 C 81 % 1020,1 hPa 0,0 l/m 4,7 km/h (1 Bft) O 81 5 min 0,000 mm 1,2 UV-I 388 W/m 8,1 C 11,2 C 9,7 km/h (2 Bft) 100,00 %
24.10.2015 15:15 11,3 C 80 % 1020,1 hPa 0,0 l/m 5,5 km/h (1 Bft) O-NO 69 5 min 0,000 mm 1,1 UV-I 376 W/m 8,0 C 11,3 C 11,3 km/h (2 Bft) 100,00 %
24.10.2015 15:20 11,4 C 81 % 1020,2 hPa 0,0 l/m 3,2 km/h (1 Bft) O 99 5 min 0,000 mm 1,0 UV-I 369 W/m 8,3 C 11,4 C 6,4 km/h (2 Bft) 100,00 %
24.10.2015 15:25 11,3 C 81 % 1020,1 hPa 0,0 l/m 3,8 km/h (1 Bft) O 91 5 min 0,000 mm 1,0 UV-I 360 W/m 8,2 C 11,3 C 6,4 km/h (2 Bft) 100,00 %
24.10.2015 15:30 11,5 C 82 % 1020,1 hPa 0,0 l/m 3,6 km/h (1 Bft) O-NO 75 5 min 0,000 mm 0,9 UV-I 344 W/m 8,5 C 11,5 C 9,7 km/h (2 Bft) 100,00 %
24.10.2015 15:35 11,4 C 80 % 1020,1 hPa 0,0 l/m 2,1 km/h (1 Bft) O 86 5 min 0,000 mm 0,9 UV-I 332 W/m 8,1 C 11,4 C 6,4 km/h (2 Bft) 99,11 %
24.10.2015 15:40 11,4 C 80 % 1020,0 hPa 0,0 l/m 3,9 km/h (1 Bft) O-NO 73 5 min 0,000 mm 0,8 UV-I 325 W/m 8,1 C 11,4 C 9,7 km/h (2 Bft) 100,00 %
24.10.2015 15:45 11,5 C 81 % 1020,0 hPa 0,0 l/m 3,2 km/h (1 Bft) O 81 5 min 0,000 mm 0,7 UV-I 312 W/m 8,4 C 11,5 C 6,4 km/h (2 Bft) 99,12 %
24.10.2015 15:50 11,4 C 80 % 1020,0 hPa 0,0 l/m 4,0 km/h (1 Bft) NO 52 5 min 0,000 mm 0,7 UV-I 301 W/m 8,1 C 11,4 C 8,0 km/h (2 Bft) 100,00 %
24.10.2015 15:55 11,5 C 81 % 1020,0 hPa 0,0 l/m 3,3 km/h (1 Bft) O 94 5 min 0,000 mm 0,6 UV-I 289 W/m 8,4 C 11,5 C 8,0 km/h (2 Bft) 100,00 %
24.10.2015 16:00 11,6 C 81 % 1020,0 hPa 0,0 l/m 3,1 km/h (1 Bft) O 82 5 min 0,000 mm 0,6 UV-I 267 W/m 8,5 C 11,6 C 6,4 km/h (2 Bft) 100,00 %
24.10.2015 16:05 11,6 C 80 % 1020,1 hPa 0,0 l/m 3,2 km/h (1 Bft) O-SO 113 5 min 0,178 mm 0,5 UV-I 256 W/m 8,3 C 11,6 C 6,4 km/h (2 Bft) 100,00 %
24.10.2015 16:10 11,6 C 81 % 1020,0 hPa 0,0 l/m 2,8 km/h (1 Bft) O-NO 74 5 min 0,000 mm 0,5 UV-I 247 W/m 8,5 C 11,6 C 9,7 km/h (2 Bft) 99,21 %
24.10.2015 16:15 11,6 C 81 % 1020,1 hPa 0,0 l/m 3,1 km/h (1 Bft) O-NO 58 5 min 0,000 mm 0,4 UV-I 230 W/m 8,5 C 11,6 C 6,4 km/h (2 Bft) 100,00 %
24.10.2015 16:20 11,7 C 81 % 1020,2 hPa 0,0 l/m 1,6 km/h (1 Bft) NO 40 5 min 0,000 mm 0,0 UV-I 216 W/m 8,5 C 11,7 C 3,2 km/h (1 Bft) 98,39 %
24.10.2015 16:25 11,8 C 82 % 1020,3 hPa 0,0 l/m 1,2 km/h (1 Bft) O-NO 71 5 min 0,000 mm 0,0 UV-I 200 W/m 8,8 C 11,8 C 4,8 km/h (1 Bft) 99,08 %
24.10.2015 16:30 11,8 C 81 % 1020,1 hPa 0,0 l/m 1,9 km/h (1 Bft) O-SO 120 5 min 0,000 mm 0,0 UV-I 186 W/m 8,6 C 11,8 C 3,2 km/h (1 Bft) 100,00 %
24.10.2015 16:35 11,8 C 81 % 1020,0 hPa 0,0 l/m 2,7 km/h (1 Bft) O 86 5 min 0,000 mm 0,0 UV-I 170 W/m 8,6 C 11,8 C 4,8 km/h (1 Bft) 100,00 %
24.10.2015 16:40 11,8 C 82 % 1020,1 hPa 0,0 l/m 1,9 km/h (1 Bft) O 82 5 min 0,000 mm 0,0 UV-I 155 W/m 8,8 C 11,8 C 4,8 km/h (1 Bft) 100,00 %
24.10.2015 16:45 11,8 C 82 % 1020,1 hPa 0,0 l/m 2,1 km/h (1 Bft) O 98 5 min 0,000 mm 0,0 UV-I 140 W/m 8,8 C 11,8 C 4,8 km/h (1 Bft) 100,00 %
24.10.2015 16:50 11,8 C 82 % 1020,1 hPa 0,0 l/m 1,6 km/h (1 Bft) O 99 5 min 0,000 mm 0,0 UV-I 126 W/m 8,8 C 11,8 C 3,2 km/h (1 Bft) 100,00 %
24.10.2015 16:55 11,8 C 83 % 1020,0 hPa 0,0 l/m 0,3 km/h (0 Bft) O 92 5 min 0,000 mm 0,0 UV-I 112 W/m 9,0 C 11,8 C 1,6 km/h (1 Bft) 100,00 %
24.10.2015 17:00 11,8 C 82 % 1020,1 hPa 0,0 l/m 0,8 km/h (0 Bft) O-NO 78 5 min 0,101 mm 0,0 UV-I 93 W/m 8,8 C 11,8 C 4,8 km/h (1 Bft) 99,11 %
24.10.2015 17:05 11,7 C 83 % 1019,9 hPa 0,0 l/m 1,8 km/h (1 Bft) N-NO 21 5 min 0,000 mm 0,0 UV-I 82 W/m 8,9 C 11,7 C 3,2 km/h (1 Bft) 100,00 %
24.10.2015 17:10 11,5 C 85 % 1020,0 hPa 0,0 l/m 1,7 km/h (1 Bft) N-NO 26 5 min 0,000 mm 0,0 UV-I 70 W/m 9,1 C 11,5 C 3,2 km/h (1 Bft) 100,00 %
24.10.2015 17:15 11,5 C 85 % 1019,9 hPa 0,0 l/m 0,2 km/h (0 Bft) N-NO 26 5 min 0,000 mm 0,0 UV-I 64 W/m 9,1 C 11,5 C 1,6 km/h (1 Bft) 99,17 %
24.10.2015 17:20 11,3 C 86 % 1020,0 hPa 0,0 l/m 0,2 km/h (0 Bft) N-NO 26 0 min 0,000 mm 0,0 UV-I 50 W/m 9,0 C 11,3 C 1,6 km/h (1 Bft) 100,00 %
24.10.2015 17:25 11,2 C 86 % 1020,0 hPa 0,0 l/m 0,3 km/h (0 Bft) N-NO 26 0 min 0,000 mm 0,0 UV-I 35 W/m 8,9 C 11,2 C 1,6 km/h (1 Bft) 100,00 %
24.10.2015 17:30 11,1 C 86 % 1020,0 hPa 0,0 l/m 0,2 km/h (0 Bft) N-NO 26 0 min 0,000 mm 0,0 UV-I 30 W/m 8,8 C 11,1 C 1,6 km/h (1 Bft) 96,69 %
24.10.2015 17:35 10,8 C 87 % 1020,0 hPa 0,0 l/m 0,0 km/h (0 Bft) N-NO 26 0 min 0,000 mm 0,0 UV-I 23 W/m 8,7 C 10,8 C 1,6 km/h (1 Bft) 100,00 %
24.10.2015 17:40 10,7 C 88 % 1019,9 hPa 0,0 l/m 0,0 km/h (0 Bft) N-NO 26 0 min 0,000 mm 0,0 UV-I 15 W/m 8,8 C 10,7 C 1,6 km/h (1 Bft) 100,00 %
24.10.2015 17:45 10,5 C 88 % 1020,0 hPa 0,0 l/m 0,1 km/h (0 Bft) N-NO 26 0 min 0,000 mm 0,0 UV-I 12 W/m 8,6 C 10,5 C 1,6 km/h (1 Bft) 99,15 %
24.10.2015 17:50 10,2 C 89 % 1020,1 hPa 0,0 l/m 0,0 km/h (0 Bft) N-NO 26 0 min 0,000 mm 0,0 UV-I 9 W/m 8,5 C 10,2 C 0,0 km/h (0 Bft) 97,44 %
24.10.2015 17:55 9,3 C 90 % 1020,1 hPa 0,0 l/m 0,9 km/h (0 Bft) N-NO 26 0 min 0,000 mm 0,0 UV-I 6 W/m 7,7 C 9,3 C 1,6 km/h (1 Bft) 100,00 %
24.10.2015 18:00 8,7 C 93 % 1020,1 hPa 0,0 l/m 1,2 km/h (1 Bft) N-NO 26 0 min 0,026 mm 0,0 UV-I 3 W/m 7,6 C 8,7 C 3,2 km/h (1 Bft) 96,00 %
24.10.2015 18:05 8,7 C 94 % 1020,1 hPa 0,0 l/m 0,1 km/h (0 Bft) N-NO 26 0 min 0,000 mm 0,0 UV-I 0 W/m 7,8 C 8,7 C 1,6 km/h (1 Bft) 99,24 %
24.10.2015 18:10 8,4 C 94 % 1020,2 hPa 0,0 l/m 1,4 km/h (1 Bft) O-NO 59 0 min 0,000 mm 0,0 UV-I 0 W/m 7,5 C 8,4 C 3,2 km/h (1 Bft) 100,00 %
24.10.2015 18:15 8,2 C 95 % 1020,1 hPa 0,0 l/m 0,8 km/h (0 Bft) O-NO 59 0 min 0,000 mm 0,0 UV-I 0 W/m 7,4 C 8,2 C 1,6 km/h (1 Bft) 98,20 %
24.10.2015 18:20 7,9 C 95 % 1020,2 hPa 0,0 l/m 0,9 km/h (0 Bft) O-NO 59 0 min 0,000 mm 0,0 UV-I 0 W/m 7,1 C 7,9 C 1,6 km/h (1 Bft) 99,19 %
24.10.2015 18:25 7,6 C 95 % 1020,1 hPa 0,0 l/m 1,7 km/h (1 Bft) O-NO 62 0 min 0,000 mm 0,0 UV-I 0 W/m 6,9 C 7,6 C 3,2 km/h (1 Bft) 99,11 %
24.10.2015 18:30 7,5 C 96 % 1020,2 hPa 0,0 l/m 1,8 km/h (1 Bft) O-NO 63 0 min 0,000 mm 0,0 UV-I 0 W/m 6,9 C 7,5 C 3,2 km/h (1 Bft) 100,00 %
24.10.2015 18:35 7,7 C 96 % 1020,2 hPa 0,0 l/m 1,4 km/h (1 Bft) O-NO 63 0 min 0,000 mm 0,0 UV-I 0 W/m 7,1 C 7,7 C 3,2 km/h (1 Bft) 100,00 %
24.10.2015 18:40 7,6 C 96 % 1020,2 hPa 0,0 l/m 0,6 km/h (0 Bft) O-NO 63 0 min 0,000 mm 0,0 UV-I 0 W/m 7,0 C 7,6 C 1,6 km/h (1 Bft) 99,13 %
24.10.2015 18:45 7,4 C 95 % 1020,1 hPa 0,0 l/m 0,9 km/h (0 Bft) O-NO 69 0 min 0,000 mm 0,0 UV-I 0 W/m 6,7 C 7,4 C 3,2 km/h (1 Bft) 99,19 %
24.10.2015 18:50 7,2 C 96 % 1020,1 hPa 0,0 l/m 1,3 km/h (1 Bft) O-NO 69 0 min 0,000 mm 0,0 UV-I 0 W/m 6,6 C 7,2 C 3,2 km/h (1 Bft) 100,00 %
24.10.2015 18:55 7,1 C 96 % 1020,1 hPa 0,0 l/m 1,7 km/h (1 Bft) O-NO 69 0 min 0,000 mm 0,0 UV-I 0 W/m 6,5 C 7,1 C 3,2 km/h (1 Bft) 100,00 %
24.10.2015 19:00 7,1 C 97 % 1020,1 hPa 0,0 l/m 0,9 km/h (0 Bft) O-NO 69 0 min 0,000 mm 0,0 UV-I 0 W/m 6,7 C 7,1 C 1,6 km/h (1 Bft) 100,00 %
24.10.2015 19:05 7,1 C 97 % 1020,1 hPa 0,0 l/m 0,4 km/h (0 Bft) O-NO 69 0 min 0,000 mm 0,0 UV-I 0 W/m 6,7 C 7,1 C 1,6 km/h (1 Bft) 100,00 %
24.10.2015 19:15 6,8 C 95 % 1020,3 hPa 0,0 l/m 0,0 km/h (0 Bft) O-NO 69 0 min 0,000 mm 0,0 UV-I 0 W/m 6,1 C 6,8 C 0,0 km/h (0 Bft) 100,00 %
24.10.2015 19:20 6,7 C 96 % 1020,3 hPa 0,0 l/m 0,0 km/h (0 Bft) O-NO 69 0 min 0,000 mm 0,0 UV-I 0 W/m 6,1 C 6,7 C 1,6 km/h (1 Bft) 99,17 %
24.10.2015 19:25 6,5 C 96 % 1020,4 hPa 0,0 l/m 0,0 km/h (0 Bft) O-NO 69 0 min 0,000 mm 0,0 UV-I 0 W/m 5,9 C 6,5 C 0,0 km/h (0 Bft) 100,00 %
24.10.2015 19:40 6,6 C 97 % 1020,4 hPa 0,0 l/m 0,2 km/h (0 Bft) O-NO 69 0 min 0,000 mm 0,0 UV-I 0 W/m 6,2 C 6,6 C 1,6 km/h (1 Bft) 99,43 %
24.10.2015 19:45 6,5 C 97 % 1020,3 hPa 0,0 l/m 0,9 km/h (0 Bft) O-NO 69 0 min 0,000 mm 0,0 UV-I 0 W/m 6,1 C 6,5 C 1,6 km/h (1 Bft) 99,11 %
24.10.2015 19:50 6,5 C 97 % 1020,3 hPa 0,0 l/m 1,5 km/h (1 Bft) O 79 0 min 0,000 mm 0,0 UV-I 0 W/m 6,1 C 6,5 C 3,2 km/h (1 Bft) 99,19 %
24.10.2015 19:55 6,4 C 97 % 1020,3 hPa 0,0 l/m 0,0 km/h (0 Bft) O 79 0 min 0,000 mm 0,0 UV-I 0 W/m 6,0 C 6,4 C 1,6 km/h (1 Bft) 100,00 %
24.10.2015 20:00 6,3 C 97 % 1020,2 hPa 0,0 l/m 0,7 km/h (0 Bft) O 79 0 min 0,000 mm 0,0 UV-I 0 W/m 5,9 C 6,3 C 1,6 km/h (1 Bft) 99,21 %
24.10.2015 20:05 6,2 C 97 % 1020,1 hPa 0,0 l/m 1,5 km/h (1 Bft) O 79 0 min 0,000 mm 0,0 UV-I 0 W/m 5,8 C 6,2 C 3,2 km/h (1 Bft) 99,11 %
24.10.2015 20:10 6,1 C 97 % 1020,1 hPa 0,0 l/m 0,6 km/h (0 Bft) O 79 0 min 0,000 mm 0,0 UV-I 0 W/m 5,7 C 6,1 C 1,6 km/h (1 Bft) 98,26 %
24.10.2015 20:15 6,1 C 97 % 1020,1 hPa 0,0 l/m 0,5 km/h (0 Bft) O-SO 107 0 min 0,000 mm 0,0 UV-I 0 W/m 5,7 C 6,1 C 1,6 km/h (1 Bft) 100,00 %
24.10.2015 20:20 6,2 C 97 % 1020,1 hPa 0,0 l/m 0,0 km/h (0 Bft) O-SO 107 0 min 0,000 mm 0,0 UV-I 0 W/m 5,8 C 6,2 C 0,0 km/h (0 Bft) 97,46 %
24.10.2015 20:25 5,7 C 96 % 1020,0 hPa 0,0 l/m 0,5 km/h (0 Bft) O-SO 120 0 min 0,000 mm 0,0 UV-I 0 W/m 5,1 C 5,7 C 3,2 km/h (1 Bft) 100,00 %
24.10.2015 20:30 5,5 C 97 % 1020,1 hPa 0,0 l/m 0,4 km/h (0 Bft) O-SO 120 0 min 0,000 mm 0,0 UV-I 0 W/m 5,1 C 5,5 C 1,6 km/h (1 Bft) 100,00 %
24.10.2015 20:35 5,6 C 97 % 1020,0 hPa 0,0 l/m 0,2 km/h (0 Bft) O-SO 120 0 min 0,000 mm 0,0 UV-I 0 W/m 5,2 C 5,6 C 1,6 km/h (1 Bft) 100,00 %
24.10.2015 20:40 5,6 C 97 % 1020,0 hPa 0,0 l/m 0,0 km/h (0 Bft) O-SO 120 0 min 0,000 mm 0,0 UV-I 0 W/m 5,2 C 5,6 C 0,0 km/h (0 Bft) 100,00 %
24.10.2015 20:45 5,6 C 97 % 1020,0 hPa 0,0 l/m 0,0 km/h (0 Bft) O-SO 120 0 min 0,000 mm 0,0 UV-I 0 W/m 5,2 C 5,6 C 0,0 km/h (0 Bft) 96,55 %
24.10.2015 20:55 5,7 C 97 % 1020,1 hPa 0,0 l/m 0,0 km/h (0 Bft) O-SO 120 0 min 0,000 mm 0,0 UV-I 0 W/m 5,3 C 5,7 C 0,0 km/h (0 Bft) 99,66 %
24.10.2015 21:00 5,7 C 97 % 1020,0 hPa 0,0 l/m 0,0 km/h (0 Bft) O-SO 120 0 min 0,000 mm 0,0 UV-I 0 W/m 5,3 C 5,7 C 0,0 km/h (0 Bft) 99,12 %
24.10.2015 21:05 5,6 C 97 % 1020,1 hPa 0,0 l/m 0,0 km/h (0 Bft) O-SO 120 0 min 0,000 mm 0,0 UV-I 0 W/m 5,2 C 5,6 C 0,0 km/h (0 Bft) 99,19 %
24.10.2015 21:10 5,6 C 97 % 1020,1 hPa 0,0 l/m 0,0 km/h (0 Bft) O-SO 120 0 min 0,000 mm 0,0 UV-I 0 W/m 5,2 C 5,6 C 0,0 km/h (0 Bft) 98,29 %
24.10.2015 21:15 5,5 C 97 % 1020,1 hPa 0,0 l/m 0,0 km/h (0 Bft) O-SO 120 0 min 0,000 mm 0,0 UV-I 0 W/m 5,1 C 5,5 C 0,0 km/h (0 Bft) 99,15 %
24.10.2015 21:20 5,5 C 97 % 1020,1 hPa 0,0 l/m 0,0 km/h (0 Bft) O-SO 120 0 min 0,000 mm 0,0 UV-I 0 W/m 5,1 C 5,5 C 0,0 km/h (0 Bft) 100,00 %
24.10.2015 21:25 5,5 C 97 % 1020,1 hPa 0,0 l/m 0,0 km/h (0 Bft) O-SO 120 0 min 0,000 mm 0,0 UV-I 0 W/m 5,1 C 5,5 C 0,0 km/h (0 Bft) 100,00 %
24.10.2015 21:30 5,6 C 97 % 1020,1 hPa 0,0 l/m 0,0 km/h (0 Bft) O-SO 120 0 min 0,000 mm 0,0 UV-I 0 W/m 5,2 C 5,6 C 0,0 km/h (0 Bft) 99,17 %
24.10.2015 21:35 5,6 C 97 % 1020,1 hPa 0,0 l/m 0,0 km/h (0 Bft) O-SO 120 0 min 0,000 mm 0,0 UV-I 0 W/m 5,2 C 5,6 C 0,0 km/h (0 Bft) 100,00 %
24.10.2015 21:40 5,5 C 97 % 1020,2 hPa 0,0 l/m 0,0 km/h (0 Bft) O-SO 120 0 min 0,000 mm 0,0 UV-I 0 W/m 5,1 C 5,5 C 0,0 km/h (0 Bft) 98,33 %
24.10.2015 21:45 5,3 C 97 % 1020,2 hPa 0,0 l/m 0,1 km/h (0 Bft) O-SO 120 0 min 0,000 mm 0,0 UV-I 0 W/m 4,9 C 5,3 C 1,6 km/h (1 Bft) 99,15 %
24.10.2015 21:50 5,4 C 97 % 1020,2 hPa 0,0 l/m 0,5 km/h (0 Bft) O-SO 120 0 min 0,000 mm 0,0 UV-I 0 W/m 5,0 C 5,4 C 1,6 km/h (1 Bft) 100,00 %
24.10.2015 21:55 5,7 C 98 % 1020,1 hPa 0,0 l/m 0,7 km/h (0 Bft) O-SO 120 0 min 0,000 mm 0,0 UV-I 0 W/m 5,4 C 5,7 C 1,6 km/h (1 Bft) 100,00 %
24.10.2015 22:00 5,5 C 98 % 1020,2 hPa 0,0 l/m 0,0 km/h (0 Bft) O-SO 120 0 min 0,000 mm 0,0 UV-I 0 W/m 5,2 C 5,5 C 0,0 km/h (0 Bft) 99,11 %
24.10.2015 22:05 5,3 C 97 % 1020,2 hPa 0,0 l/m 0,0 km/h (0 Bft) O-SO 120 0 min 0,000 mm 0,0 UV-I 0 W/m 4,9 C 5,3 C 0,0 km/h (0 Bft) 100,00 %
24.10.2015 22:10 5,2 C 97 % 1020,2 hPa 0,0 l/m 0,0 km/h (0 Bft) O-SO 120 0 min 0,000 mm 0,0 UV-I 0 W/m 4,8 C 5,2 C 1,6 km/h (1 Bft) 99,11 %
24.10.2015 22:15 5,1 C 97 % 1020,2 hPa 0,0 l/m 0,0 km/h (0 Bft) O-SO 120 0 min 0,000 mm 0,0 UV-I 0 W/m 4,7 C 5,1 C 0,0 km/h (0 Bft) 99,15 %
24.10.2015 22:20 5,2 C 97 % 1020,3 hPa 0,0 l/m 0,0 km/h (0 Bft) O-SO 120 0 min 0,000 mm 0,0 UV-I 0 W/m 4,8 C 5,2 C 0,0 km/h (0 Bft) 99,15 %
24.10.2015 22:25 5,2 C 97 % 1020,3 hPa 0,0 l/m 0,3 km/h (0 Bft) O-SO 120 0 min 0,000 mm 0,0 UV-I 0 W/m 4,8 C 5,2 C 1,6 km/h (1 Bft) 100,00 %
24.10.2015 22:30 5,2 C 97 % 1020,3 hPa 0,0 l/m 0,1 km/h (0 Bft) O-SO 120 0 min 0,000 mm 0,0 UV-I 0 W/m 4,8 C 5,2 C 1,6 km/h (1 Bft) 99,17 %
24.10.2015 22:35 5,0 C 97 % 1020,3 hPa 0,0 l/m 0,0 km/h (0 Bft) O-SO 120 0 min 0,000 mm 0,0 UV-I 0 W/m 4,6 C 5,0 C 0,0 km/h (0 Bft) 100,00 %
24.10.2015 22:40 4,8 C 97 % 1020,3 hPa 0,0 l/m 0,0 km/h (0 Bft) O-SO 120 0 min 0,000 mm 0,0 UV-I 0 W/m 4,4 C 4,8 C 0,0 km/h (0 Bft) 100,00 %
24.10.2015 22:45 4,7 C 97 % 1020,3 hPa 0,0 l/m 0,1 km/h (0 Bft) O-SO 120 0 min 0,000 mm 0,0 UV-I 0 W/m 4,3 C 4,7 C 1,6 km/h (1 Bft) 98,33 %
24.10.2015 22:50 4,8 C 97 % 1020,3 hPa 0,0 l/m 0,9 km/h (0 Bft) O-SO 121 0 min 0,000 mm 0,0 UV-I 0 W/m 4,4 C 4,8 C 3,2 km/h (1 Bft) 100,00 %
24.10.2015 22:55 5,0 C 98 % 1020,3 hPa 0,0 l/m 0,7 km/h (0 Bft) O-SO 121 0 min 0,000 mm 0,0 UV-I 0 W/m 4,7 C 5,0 C 3,2 km/h (1 Bft) 100,00 %
24.10.2015 23:00 5,2 C 98 % 1020,3 hPa 0,0 l/m 0,5 km/h (0 Bft) O-SO 121 0 min 0,000 mm 0,0 UV-I 0 W/m 4,9 C 5,2 C 1,6 km/h (1 Bft) 99,21 %
24.10.2015 23:05 5,2 C 98 % 1020,3 hPa 0,0 l/m 0,6 km/h (0 Bft) O-SO 121 0 min 0,000 mm 0,0 UV-I 0 W/m 4,9 C 5,2 C 1,6 km/h (1 Bft) 99,15 %
24.10.2015 23:10 5,1 C 98 % 1020,3 hPa 0,0 l/m 0,0 km/h (0 Bft) O-SO 121 0 min 0,000 mm 0,0 UV-I 0 W/m 4,8 C 5,1 C 1,6 km/h (1 Bft) 99,08 %
24.10.2015 23:15 5,1 C 98 % 1020,3 hPa 0,0 l/m 0,1 km/h (0 Bft) O-SO 121 0 min 0,000 mm 0,0 UV-I 0 W/m 4,8 C 5,1 C 1,6 km/h (1 Bft) 100,00 %
24.10.2015 23:20 4,8 C 97 % 1020,4 hPa 0,0 l/m 0,0 km/h (0 Bft) O-SO 121 0 min 0,000 mm 0,0 UV-I 0 W/m 4,4 C 4,8 C 0,0 km/h (0 Bft) 99,13 %
24.10.2015 23:25 4,5 C 97 % 1020,4 hPa 0,0 l/m 0,0 km/h (0 Bft) O-SO 121 0 min 0,000 mm 0,0 UV-I 0 W/m 4,1 C 4,5 C 0,0 km/h (0 Bft) 99,17 %
24.10.2015 23:30 4,4 C 97 % 1020,5 hPa 0,0 l/m 0,0 km/h (0 Bft) O-SO 121 0 min 0,000 mm 0,0 UV-I 0 W/m 4,0 C 4,4 C 0,0 km/h (0 Bft) 100,00 %
24.10.2015 23:35 4,3 C 97 % 1020,5 hPa 0,0 l/m 0,1 km/h (0 Bft) O-SO 121 0 min 0,000 mm 0,0 UV-I 0 W/m 3,9 C 4,3 C 1,6 km/h (1 Bft) 98,35 %
24.10.2015 23:40 4,3 C 97 % 1020,5 hPa 0,0 l/m 0,5 km/h (0 Bft) O-SO 121 0 min 0,000 mm 0,0 UV-I 0 W/m 3,9 C 4,3 C 3,2 km/h (1 Bft) 100,00 %
24.10.2015 23:45 4,4 C 98 % 1020,5 hPa 0,0 l/m 1,5 km/h (1 Bft) O-SO 121 0 min 0,000 mm 0,0 UV-I 0 W/m 4,1 C 4,4 C 3,2 km/h (1 Bft) 100,00 %
24.10.2015 23:50 4,6 C 98 % 1020,5 hPa 0,0 l/m 0,0 km/h (0 Bft) O-SO 121 0 min 0,000 mm 0,0 UV-I 0 W/m 4,3 C 4,6 C 0,0 km/h (0 Bft) 99,21 %
24.10.2015 23:55 4,7 C 98 % 1020,5 hPa 0,0 l/m 0,1 km/h (0 Bft) O-SO 121 0 min 0,000 mm 0,0 UV-I 0 W/m 4,4 C 4,7 C 1,6 km/h (1 Bft) 100,00 %
_ Min-Zeit 01:15 15:05 17:05 - 01:55 - - - - - - 01:15 09:45 01:55 18:00
Minimum _ 3,9 C 80 % 1019,9 hPa - 0,0 km/h (0 Bft) - - - - - - 3,6 C 3,2 C 0,0 km/h (0 Bft) 96,00 %
_ Max-Zeit 17:00 06:05 00:00 00:00 09:45 - - 13:10 14:05 12:50 12:40 17:10 16:25 09:20 00:00
Maximum _ 11,9 C 99 % 1023,6 hPa 0,0 l/m 9,2 km/h
O (2 Bft)
- - 15 min 0,203 mm 2,2 UV-I 569 W/m 9,1 C 11,8 C 17,7 km/h
NO (3 Bft)
100,00 %
Durchschnitt _ 6,6 C 95 % 1021,3 hPa #0,0 l/m 2,3 km/h (1 Bft) O - #5:15 h #1,067 mm 1,4 UV-I 219 W/m 5,8 C 6,6 C 5,4 km/h (1 Bft) 99,46 %